Simultaneous Nadir Overpasses (SNOs) Predictions

Prediction of SNOs between AQUA and METOP-C Satellite Orbit:

Table of predicted SNOs for the next 14.0 days since TLE Epoch: 2/26/2022
Index Date (AQUA) Time (AQUA) Lat,Lon (AQUA) SZA (AQUA ) Date (METOP-C) Time (METOP-C) Lat,Lon (METOP-C) SZA (METOP-C ) Distance(km) Time Diff (sec)
1 02/26/2022 17:46:43 73.75, -92.08 82.37 02/26/2022 17:45:48 73.73, -92.14 82.36 2.89 55
2 02/26/2022 18:36:10 -73.84, 75.37 97.55 02/26/2022 18:36:29 -73.83, 75.40 97.57 1.75 19
3 02/26/2022 19:25:49 74.43,-118.36 83.08 02/26/2022 19:26:55 74.45,-115.69 82.99 79.70 66
4 03/01/2022 13:20:51 73.78, -25.66 81.33 03/01/2022 13:20:10 73.76, -25.67 81.32 1.53 41
5 03/01/2022 14:10:18 -73.86, 141.80 98.60 03/01/2022 14:10:51 -73.86, 141.88 98.61 2.43 33
6 03/04/2022 08:54:59 73.77, 40.84 80.23 03/04/2022 08:54:33 73.79, 40.81 80.27 3.24 26
7 03/04/2022 09:44:26 -73.85,-151.70 99.70 03/04/2022 09:45:15 -73.84,-151.77 99.71 2.41 49
8 03/07/2022 03:39:35 -73.54, -59.82 101.10 03/07/2022 03:38:24 -73.49, -60.84 101.09 32.47 71
9 03/07/2022 04:29:08 73.83, 107.18 79.20 03/07/2022 04:28:56 73.83, 107.29 79.20 3.19 12
10 03/07/2022 05:18:34 -73.85, -85.23 100.79 03/07/2022 05:19:38 -73.87, -85.29 100.78 2.53 64
11 03/09/2022 23:13:46 -73.77, 6.16 101.96 03/09/2022 23:12:41 -73.77, 6.21 101.95 1.74 65
12 03/10/2022 00:03:14 73.80, 173.72 78.07 03/10/2022 00:03:19 73.81, 173.65 78.08 2.40 5



Historial Predications of SNOs between AQUA and METOP-C
